Regional Weather Roundup
Issued by NWS

Home | Current Version | Previous Version | Text Only | Print | Product List | Glossary On
Versions: 1 2 3 4 5 6 7 8 9 10 11 12 13 14 15 16 17 18 19 20 21 22 23 24 25 26 27 28 29 30 31 32 33 34 35 36 37 38 39 40 41 42 43 44 45 46 47 48 49 50
924
ASUS43 KFSD 161302
RWRSD

WEATHER ROUNDUP FOR SOUTH DAKOTA
NATIONAL WEATHER SERVICE SIOUX FALLS SD
700 AM CST SAT DEC 16 2017

NOTE: "FAIR" INDICATES FEW OR NO CLOUDS BELOW 12,000 FEET WITH NO
SIGNIFICANT WEATHER AND/OR OBSTRUCTIONS TO VISIBILITY.


SDZ001>005-009-010-012>017-161400-
NORTHWEST AND NORTH CENTRAL SOUTH DAKOTA

CITY           SKY/WX    TMP DP  RH WIND       PRES   REMARKS
BUFFALO          N/A     34  29  82 NW17G28   29.79R WCI  23
FAITH            N/A     35  31  85 NW10      29.83R WCI  27
MOBRIDGE       CLOUDY    39  33  79 NW10      29.76R
$$

SDZ012>016-024>037-041>051-057-063-072>074-161400-
SOUTHWEST AND SOUTH CENTRAL SOUTH DAKOTA

CITY           SKY/WX    TMP DP  RH WIND       PRES   REMARKS
RAPID CTY ARPT PTCLDY    36  22  56 N25G33    29.84R
PIERRE         CLOUDY    34  26  72 NW13      29.78R WCI  25
CUSTER         CLOUDY    34  20  56 N7        29.79R WCI  28
ELLSWORTH AFB  CLOUDY    35  25  67 N17       29.84R WCI  25
PHILIP         CLOUDY    34  26  72 NW15      29.83R WCI  24
PINE RIDGE     CLOUDY    29  22  75 CALM      29.81R
SPEARFISH      CLOUDY    34  27  75 NW9G16    29.88R WCI  26
WINNER         FAIR      34  24  67 W7        29.79R WCI  28
$$

SDZ004>011-016>023-039-040-161400-
NORTHEAST SOUTH DAKOTA

CITY           SKY/WX    TMP DP  RH WIND       PRES   REMARKS
ABERDEEN       MIX PCPN  35  33  92 W6        29.77R
WATERTOWN      CLOUDY    33  28  81 NW10      29.72R WCI  25
BROOKINGS      CLOUDY    28  24  85 W7        29.74R WCI  21
SISSETON         N/A     34  30  85 NW8       29.73R WCI  27
$$

SDZ017-020-022-023-036>040-048>070-161400-
SOUTHEAST SOUTH DAKOTA

CITY           SKY/WX    TMP DP  RH WIND       PRES   REMARKS
SIOUX FALLS    CLOUDY    32  25  75 CALM      29.74R
HURON          PTCLDY    29  25  85 NW8       29.77R WCI  21
CHAMBERLAIN    CLOUDY    37  27  67 N3        29.78R
MITCHELL       CLEAR     32  25  75 NW7       29.77R WCI  26
YANKTON        CLOUDY    31  25  78 NW10      29.75R WCI  22
$$

ABBREVIATIONS USED IN REMARKS
   TC - TEMPERATURE IN CELSIUS
  WCI - WIND CHILL INDEX
   HX - HEAT INDEX
  VSB - VISIBILITY





USA.gov is the U.S. government's official web portal to all federal, state and local government web resources and services.